Regional Weather Roundup
Issued by NWS

Home | Current Version | Previous Version | Text Only | Print | Product List | Glossary On
Versions: 1 2 3 4 5 6 7 8 9 10 11 12 13 14 15 16 17 18 19 20 21 22 23 24 25 26 27 28 29 30 31 32 33 34 35 36 37 38 39 40 41 42 43 44 45 46 47 48 49 50
000
ASUS43 KDTX 041401
RWRMI
MICHIGAN HOURLY REGIONAL WEATHER ROUNDUP
NATIONAL WEATHER SERVICE DETROIT/PONTIAC MI
1000 AM EDT SAT JUL 04 2015

NOTE: "FAIR" INDICATES FEW OR NO CLOUDS BELOW 12,000 FEET WITH NO
SIGNIFICANT WEATHER AND/OR OBSTRUCTION TO VISIBILITY.

MIZ047>049-052>055-059>063-066>070-074>076-081>083-041500-
SOUTHEAST LOWER MICHIGAN

CITY           SKY/WX    TMP DP  RH WIND       PRES   REMARKS
ADRIAN         SUNNY     70  59  68 CALM      30.01R
ALMA           SUNNY     68  57  67 W5        29.99S
ANN ARBOR      SUNNY     71  56  58 VRB3      29.99R
BAD AXE        MOSUNNY   68  56  64 NW5       29.98S
CARO           SUNNY     67  57  69 CALM      29.98S
DETROIT CITY   SUNNY     71  50  47 N3        29.99R
DETROIT        SUNNY     72  55  55 NW5       29.99S
FLINT          SUNNY     70  53  54 W3        29.99S
GROSSE ILE     SUNNY     70  55  60 CALM      29.98S
HILLSDALE      SUNNY     69  60  72 NW7       30.01R
HOWELL         SUNNY     67  57  68 CALM      30.00R

CITY           SKY/WX    TMP DP  RH WIND       PRES   REMARKS
JACKSON        SUNNY     68  60  75 NW3       30.00R
LAMBERTVILLE   SUNNY     70  58  67 CALM      30.00R
LANSING        SUNNY     67  55  65 W3        30.00S
LAPEER         FAIR      66  52  59 CALM      29.99S
MASON          SUNNY     65  56  72 CALM      30.00R
MONROE         SUNNY     69  59  69 NW3       29.99S
MT. CLEMENS    SUNNY     69  54  59 NW5       29.97R
PONTIAC        SUNNY     67  51  56 NW5       29.98S
PORT HOPE        N/A     71  58  63 VRB6      29.95S
PORT HURON     SUNNY     66  57  72 CALM      29.98F
TRI CITIES     SUNNY     70  54  56 W7        29.99R
MIDLAND        FAIR      70  55  58 CALM      29.97F
TROY           SUNNY     70  48  45 CALM      30.00S
SAGINAW HB     SUNNY     68  52  56 W5        29.98S
$$
MIZ043>046-050>051-056>058-064>065-071>073-077>080-041500-
SOUTHWEST LOWER MICHIGAN

CITY           SKY/WX    TMP DP  RH WIND       PRES   REMARKS
BATTLE CREEK   SUNNY     69  57  65 NW5       30.01S
BENTON HARBOR  SUNNY     68  57  68 CALM      30.00R
BIG RAPIDS     SUNNY     69  53  55 SW3       29.98S
COLDWATER      SUNNY     67  58  72 NW3       30.00S
FREMONT        FAIR      66  56  68 CALM      29.98S
HOLLAND        SUNNY     69  56  62 CALM      30.00S
GRAND RAPIDS   PTSUNNY   67  53  61 W3        30.00S
IONIA          FAIR      67  54  61 W6        29.99S
KALAMAZOO      SUNNY     69  54  58 NW5       30.00F
LUDINGTON      SUNNY     68  59  73 W6        29.97S
MARSHALL       SUNNY     67  56  67 NW5       30.00S
MOUNT PLEASANT SUNNY     70  52  53 W5        29.97S
MUSKEGON       MOSUNNY   68  56  65 SW5       29.99R
SOUTH HAVEN    SUNNY     67  55  65 CALM      30.00R
$$
MIZ016>042-041500-
NORTHERN LOWER MICHIGAN

CITY           SKY/WX    TMP DP  RH WIND       PRES   REMARKS
ALPENA         SUNNY     71  51  49 VRB6      29.96R
BEAVER ISLAND  SUNNY     66  57  72 W3        29.96S
BELLAIRE       SUNNY     68  52  57 SW3       29.96S
CADILLAC       SUNNY     69  54  59 SW7       29.97F
CHARLEVOIX     SUNNY     65  55  72 NW5       29.99S
FRANKFORT      SUNNY     68  53  59 CALM      29.96S
GAYLORD        SUNNY     67  51  56 NW6       29.97S
GRAYLING       SUNNY     70  54  56 W6        29.98S
HARBOR SPRINGS SUNNY     64  54  70 SW5       29.96S
HOUGHTON LAKE  SUNNY     68  52  56 W6        29.98S
MANISTEE       SUNNY     64  55  72 CALM      29.97S
OSCODA         SUNNY     72  54  54 W5        29.95S
PELLSTON       SUNNY     68  58  70 W6        29.96S
ROGERS CITY    SUNNY     67  56  69 N3        29.96S
TRAVERSE CITY  PTSUNNY   69  55  60 NW5       29.95S
$$
MIZ007>008-015-041500-
EASTERN UPPER MICHIGAN

CITY           SKY/WX    TMP DP  RH WIND       PRES   REMARKS
KINROSS        CLOUDY    55  55 100 NW6       29.96S
MACKINAC ISLAN SUNNY     62  56  80 CALM      29.95F
NEWBERRY       CLOUDY    57  57  99 CALM      29.96S FOG
S. S. MARIE    CLOUDY    59  56  89 CALM      29.96R FOG
$$
MIZ004>006-011>014-085-041500-
CENTRAL UPPER MICHIGAN

CITY           SKY/WX    TMP DP  RH WIND       PRES   REMARKS
MANISTIQUE     SUNNY     66  58  76 CALM      29.96R
ESCANABA       SUNNY     68  59  73 NE5       29.96S
MENOMINEE      SUNNY     66  57  72 E8        29.96S
SAWYER-GWINN   SUNNY     64  57  77 NE7       29.99R
$$
MIZ001>003-009>011-084-041500-
WESTERN UPPER MICHIGAN

CITY           SKY/WX    TMP DP  RH WIND       PRES   REMARKS
IRON MOUNTAIN  SUNNY     68  60  75 NW3       29.98R
HOUGHTON       SUNNY     67  56  67 E7        30.00R
COPPER HARBOR    N/A     53  49  86 CALM      30.00R
IRONWOOD       SUNNY     64  63  94 NE3       29.96R
$$

ABBREVIATIONS USED IN REMARKS
   TC - TEMPERATURE IN CELSIUS
  WCI - WIND CHILL INDEX
   HX - HEAT INDEX
  VSB - VISIBILITY




USA.gov is the U.S. government's official web portal to all federal, state and local government web resources and services.